www.pogodaiklimat.ru

Погода и климат >> Архив погоды >> Россия >> Якутия >> Усть-Мома


АРХИВ ПОГОДЫ в Усть-Моме

Время (UTC), дата Ветер
(напр.,м/с)
 
Видим.   Явления Облачность Т
(С)
Тd
(С)
f
(%)
Тe
(С)
Тes
(С)
Комфортность P
(гПа)
Po
(гПа)
Тmin
(С)
Tmax
(С)
R
(мм)
R24
(мм)
S
(см)
03 19.04 ЮВ 1 50 км 8/3 1000 м
[Cu hum Cs]
-2.4 -10.6 53 -4 +1 1021.9 997.1
06 19.04 Ю 1 50 км 8/1 1000 м
[Sc Cs]
-1.9 -12.4 44 -3 +1 1020.5 995.7
09 19.04 С 1 50 км 3/0
[Cs]
-2.4 -13.9 41 -4 -3 1020.5 995.7 -0.8
12 19.04 С 1 50 км 6/0
[Ac trans Ci fib]
-10.4 -15.7 65 -13 -13 1021.1 995.5
15 19.04 штиль 0 50 км 6/0
[Ci fib]
-16.0 -18.7 80 -16 -16 1021.5 995.3
18 19.04 штиль 0 50 км 4/0
[Ci fib]
-20.8 -22.7 85 -21 -21 1021.9 995.2
21 19.04 штиль 0 50 км 10/0
[Ac trans Ci fib]
-16.5 -19.1 80 -17 -16 1022.1 995.8 -20.9 22
00 20.04 СЗ 1 50 км 9/0
[Ac trans Ci fib]
-8.7 -15.3 59 -11 -6 1021.6 996.1 -21.3
03 20.04 СВ 1 50 км 4/0
[Ci fib]
-3.5 -13.1 47 -5 +3 1020.6 995.7
06 20.04 Ю 1 50 км 9/0
[Ci]
-0.2 -11.9 41 -1 +3 1019.6 994.9
09 20.04 штиль 0 50 км 4/0
[Ci fib]
-0.3 -12.1 41 -1 0 1019.3 994.6 +0.6
12 20.04 штиль 0 50 км 6/0
[Ci fib]
-7.9 -14.6 59 -8 -8 1019.9 994.5
15 20.04 штиль 0 50 км 6/0
[Ci fib]
-12.6 -16.1 75 -13 -13 1019.9 994.1
18 20.04 штиль 0 50 км 6/0
[Ci fib]
-17.2 -19.1 85 -17 -17 1020.1 993.8
21 20.04 штиль 0 50 км 4/0
[Ci fib]
-13.8 -16.5 80 -14 -12 1018.5 992.6 -17.2 22
00 21.04 штиль 0 50 км 5/0
[Ci fib]
-4.8 -12.5 55 -5 +2 1015.8 990.8
03 21.04 штиль 0 50 км 8/0
[Ci]
-0.2 -8.4 54 -1 +8 1013.0 988.5
06 21.04 СЗ 2 50 км 10/0
[Ci]
+3.2 -7.2 46 +1 +4 1010.2 986.1
09 21.04 ЮВ 3 50 км 10/0
[Ac trans Ci fib]
+4.8 -7.2 41 +2 +2 1009.7 985.7 +5.6
12 21.04 С 2 50 км 10/0
[Ac trans Ci fib]
-3.4 -10.8 57 -7 -7 1010.9 986.2
15 21.04 СЗ 1 50 км 10/0
[Ac und]
-4.7 -10.4 64 -7 -7 1010.8 986.0
18 21.04 СЗ 1 50 км 10/6 1000 м
[Sc Ac und]
-5.6 -10.8 67 -8 -8 1010.4 985.4
21 21.04 СЗ 1 50 км 10/6 1000 м
[Sc Ac und]
-6.1 -11.0 68 -8 -8 1010.0 985.0 -6.2 21
00 22.04 ЮВ 4 50 км 10/3 1000 м
[Sc Ac As Cs]
+4.8 -5.1 49 +1 +3 1008.1 984.1
03 22.04 ЮВ 5-10
{11}
50 км 10/1 1000 м
[Sc Cs]
+6.2 -6.6 39 +3 +6 1007.2 983.4
06 22.04 ЮВ 4
{10}
50 км 10/1 1000 м
[Sc Cs]
+7.2 -7.1 35 +5 +7 1007.0 983.3
09 22.04 ЮВ 2 50 км 10/0
[Ac lent Cs]
+6.1 -8.8 33 +5 +5 1007.3 983.4 +8.0
12 22.04 ЮВ 2 50 км 10/3 1500 м
[Sc Ac As]
+3.8 -6.2 48 +2 +2 1007.2 983.7
15 22.04 ЮВ 3 50 км 10/3 1500 м
[Sc Ac As]
+2.9 -6.3 51 -0 -0 1007.9 983.7
18 22.04 штиль 0 50 км 10/3 1500 м
[Sc As op]
+0.6 -4.4 69 -0 -0 1008.5 984.2
21 22.04 штиль 0 50 км 10/3 1500 м
[Sc As op]
-1.0 -16.0 31 -1 -1 1009.0 984.5 -2.1 15
00 23.04 ЮВ 4 50 км 10/3 1500 м
[Sc Ac trans Cs]
+3.4 -3.7 60 -1 +1 1008.9 984.8
03 23.04 Ю 3 50 км 10/3 1500 м
[Sc Ac trans Cs]
+3.6 -1.7 68 0 +3 1008.4 984.3
06 23.04 штиль 0 50 км 10/3 1500 м
[Cb cap Ac trans Cs]
+3.8 -1.8 67 +3 +5 1008.4 984.3
09 23.04 С 1 50 км 10/6 1500 м
[Cb cap Ac trans Cs]
+3.4 -1.9 68 +2 +2 1009.0 984.9 +6.2
12 23.04 штиль 0 10 км слаб. ливневой снег 10/8 600 м
[Cb cap Ac As]
+0.6 +0.3 98 -1 -1 1009.9 985.6
15 23.04 СЗ 2 4000 м слаб. снег 10/8 600 м
[Cb cap Ac As]
+0.2 -0.1 98 -4 -4 1010.3 986.0
18 23.04 штиль 0 4000 м слаб. снег 10/8 600 м
[Cb cap Ac As]
-0.8 -1.1 98 -2 -2 1011.1 986.7
21 23.04 штиль 0 10 км слаб. снег 10/8 600 м
[St As op]
-0.7 -1.0 98 -2 -2 1011.6 987.2 -1.5 5 15
00 24.04 З 1 50 км {снег} 10/8 600 м
[Sc Ac trans]
+1.3 -0.7 87 -1 0 1011.7 987.4
03 24.04 С 3 50 км 10/8 1000 м
[Cb cap Ci fib]
+1.8 -2.6 73 -2 -1 1011.2 987.0
06 24.04 В 1 50 км {снег} 8/4 1000 м
[Cb cap Ci fib]
+3.5 -4.3 57 +3 +5 1011.0 986.9
09 24.04 Ю 2 50 км 8/5 1000 м
[Cb cap Ci fib]
+3.7 -7.3 44 +2 +2 1010.7 986.6 +3.9 0.0
12 24.04 Ю 1 50 км 6/3 1000 м
[Cb cap Ci fib]
-2.0 -8.6 61 -4 -4 1011.2 986.6
15 24.04 штиль 0 50 км 6/3 1000 м
[Cb cap Ci fib]
-5.0 -8.2 78 -6 -6 1011.4 986.5
18 24.04 ЮВ 3 50 км 8/0
[Ci fib]
-2.4 -9.2 60 -7 -7 1010.6 986.0
21 24.04 ЮВ 3 50 км 3/0
[Ci fib]
-1.0 -6.0 69 -6 -4 1010.1 985.6 -5.0 15
00 25.04 ЮВ 6-9
{11}
50 км 6/0
[Ac trans Ci fib]
+2.0 -10.7 38 -3 -1 1009.2 985.0
03 25.04 Ю 4 50 км 6/0
[Ac trans Ci fib]
+3.6 -11.6 32 0 +4 1008.4 984.3
06 25.04 ЮВ 3 50 км 8/1 1500 м
[Cu hum Ci fib]
+4.9 -10.6 32 +2 +5 1007.3 983.3
09 25.04 ЮВ 2 50 км 8/0
[Ci fib]
+3.7 -9.7 37 +2 +2 1007.3 983.2 +5.2
12 25.04 В 1 50 км 10/0
[Ac trans Ci fib]
+1.6 -9.8 42 +1 +1 1007.6 983.4
15 25.04 штиль 0 50 км 10/0
[Ac trans Ci fib]
-6.0 -9.5 76 -7 -7 1008.5 983.5
18 25.04 штиль 0 50 км 8/0
[Ci fib]
-9.9 -12.0 85 -10 -10 1008.9 983.5
21 25.04 В 1 50 км 8/0
[Ci fib]
-4.9 -11.2 61 -7 -5 1007.9 983.0 -10.0 9
00 26.04 СВ 1 50 км 3/0
[Ci fib]
+0.9 -10.5 42 -0 +7 1005.6 981.4

 

Местоположение метеостанции Усть-Мома (Якутия, Россия): широта 66.45 долгота 143.20 высота над уровнем моря 196 м.

В архиве по умолчанию представлена погода в Усть-Моме за последнюю неделю. Архивные данные за месяц целиком и за предыдущие месяцы, начиная с января 2011 года, Вы можете получить, выбрав интересующий диапазон дат из раскрывающегося списка и нажав кнопку "Ввод!".


*Определитесь, кто Вы:
робот инопланетянин человек

Внимание! Время в таблицах - всемирное. Для получения местного времени необходимо прибавить поправку, которая равна 11 ч.

Смотрите также архив погоды в соседних городах и на ближайших метеорологических станциях:

Погода в Усть-Нере (Якутия, Россия) (214 км)
Погода в Белой Горе (Якутия, Россия) (266 км)
Погода в Юртах (Якутия, Россия) (275 км)
Погода в Усть-Чарках (Якутия, Россия) (294 км)
Погода в Делянкире (Якутия, Россия) (312 км)
Погода в Агаякане (Якутия, Россия) (354 км)
Погода в Депутатском (Якутия, Россия) (355 км)
Погода в Оймяконе (Якутия, Россия) (356 км)
Погода в Зырянке (Якутия, Россия) (356 км)
Погода в Иэме (Якутия, Россия) (360 км)

Пояснения к столбцам:

Ветер - указаны скорость ветра в м/с - средняя за 10 мин, порывы в срок и между сроками (в фигурных скобках) и направление, откуда дует ветер: С - северный, СВ - северо-восточный, В - восточный, ЮВ - юго-восточный, Ю - южный, ЮЗ - юго-западный, З - западный, СЗ - северо-западный.
Видимость - горизонтальная дальность видимости в метрах или километрах. При видимости от 1 до 10 км при отсутствии осадков обычно наблюдается дымка, при ухудшении видимости до 1 км и менее - туман. В сухую погоду видимость может ухудшаться дымом, пылью или мглою.
Явления - указаны атмосферные явления, наблюдавшиеся в срок или в последний час перед сроком; фигурными скобками обозначены явления, наблюдавшиеся между сроками (за 1-3 часа до срока); квадратными скобками обозначены град или гололедные отложения с указанием их диаметра в мм.
Облачность - указаны через наклонную черту общая и нижняя облачность в баллах и высота нижней границы облаков в метрах; квадратными скобками обозначены формы облаков: Ci - перистые, Cs - перисто-слоистые, Cc - перисто-кучевые, Ac - высококучевые, As - высокослоистые, Sc - слоисто-кучевые, Ns - слоисто-дождевые, Cu - кучевые, Cb - кучево-дождевые. Подробнее классификацию облаков см. в Атласе облаков (PDF).
T - Температура воздуха - температура, измеренная на высоте 2 м над землей.
Td - Температура точки росы - температура, при понижении до которой содержащийся в воздухе водяной пар достигнет насыщения.
f - Относительная влажность воздуха - влажноcть воздуха, измеренная на высоте 2 м над землей.
Te - Эффективная температура - температура, которую ощущает одетый по сезону человек в тени. Характеристика душности погоды. При расчете учитывается влияние влажности воздуха и скорости ветра на теплоощущения человека.
Tes - Эффективная температура на солнце - температура, которую ощущает человек, с поправкой на солнечный нагрев. Характеристика знойности погоды. Зависит от высоты солнца над горизонтом, облачности и скорости ветра. Ночью, в пасмурную погоду, а также при ветре 12 м/с и более поправка равна нулю.
P - Атмосферное давление - приведенное к уровню моря атмосферное давление.
Po - Атмосферное давление - измеренное на уровне метеостанции атмосферное давление.
Tmin - Минимальная температура - минимум температуры воздуха на высоте 2 м над землей.
Tmax - Максимальная температура - максимум температуры воздуха на высоте 2 м над землей.
R - Количество осадков - Количество выпавших осадков за период времени, мм. При наведении курсора мыши на число - период времени, за который выпало указанное количество осадков.
R24 - Количество осадков - Количество выпавших осадков за 24 часа, мм.
S - Снежный покров - Высота снежного покрова, см. При наведении курсора мыши на число - состояние снежного покрова и степень покрытия местности в баллах.